Regional Weather Roundup
Issued by NWS

Home | Current Version | Previous Version | Text Only | Print | Product List | Glossary On
Versions: 1 2 3 4 5 6 7 8 9 10 11 12 13 14 15 16 17 18 19 20 21 22 23 24 25 26 27 28 29 30 31 32 33 34 35 36 37 38 39 40 41 42 43 44 45 46 47 48 49 50
889
ASUS46 KPQR 221210
RWROR

OREGON REGIONAL WEATHER ROUNDUP
NATIONAL WEATHER SERVICE PORTLAND OR
500 AM PDT THU JUN 22 2017

NOTE: "FAIR" INDICATES FEW OR NO CLOUDS BELOW 12,000 FEET WITH
NO SIGNIFICANT WEATHER AND/OR OBSTRUCTIONS TO VISIBILITY.

ORZ001>013-221300-
NORTHWEST OREGON


CITY           SKY/WX    TMP DP  RH WIND       PRES   REMARKS
ASTORIA        CLEAR     46  43  89 CALM      30.27S
6HR MIN TEMP:  46; 6HR MAX TEMP:  55;

NEWPORT        CLEAR     45  45 100 E3        30.24F
PORTLAND       CLEAR     54  47  77 N3        30.23F
6HR MIN TEMP:  54; 6HR MAX TEMP:  60;

VANCOUVER WA   CLEAR     52  48  86 CALM      30.23
6HR MIN TEMP:  52; 6HR MAX TEMP:  61;

SCAPPOOSE      CLEAR     56  46  69 NW12      30.22F
6HR MIN TEMP:  53; 6HR MAX TEMP:  58;

HILLSBORO      CLEAR     50  46  86 NW7       30.23S
6HR MIN TEMP:  50; 6HR MAX TEMP:  57;

AURORA         CLEAR     52  45  77 NE3       30.23F
6HR MIN TEMP:  50; 6HR MAX TEMP:  60;

MCMINNVILLE    CLEAR     49  45  86 W3        30.23F
6HR MIN TEMP:  47; 6HR MAX TEMP:  59;

SALEM          CLEAR     53  46  77 N5        30.21F
6HR MIN TEMP:  51; 6HR MAX TEMP:  63;

CORVALLIS      CLEAR     54  45  71 CALM      30.22S
EUGENE         CLEAR     49  47  93 N9        30.20S
6HR MIN TEMP:  49; 6HR MAX TEMP:  58;

$$

ORZ021-028-221300-
SOUTHWEST OREGON


CITY           SKY/WX    TMP DP  RH WIND       PRES   REMARKS
NORTH BEND     CLEAR     52  50  93 N7        30.17S
6HR MIN TEMP:  52; 6HR MAX TEMP:  55;

BROOKINGS      CLEAR     76  39  26 N8G23     29.93S
ROSEBURG       CLEAR     58  48  69 N6        30.16R
6HR MIN TEMP:  58; 6HR MAX TEMP:  69;

SEXTON SUMMIT  CLEAR     54  38  54 NE17G28   30.14S
6HR MIN TEMP:  50; 6HR MAX TEMP:  56;

GRANTS PASS    FAIR      54  43  66 CALM      30.14R
MEDFORD        CLEAR     57  47  69 N3        30.10R
6HR MIN TEMP:  57; 6HR MAX TEMP:  71;

$$

ORZ014>016-041-221300-
COLUMBIA GORGE


CITY           SKY/WX    TMP DP  RH WIND       PRES   REMARKS
TROUTDALE      CLEAR     52  48  86 CALM      30.22F
6HR MIN TEMP:  51; 6HR MAX TEMP:  62;

HOOD RIVER     CLEAR     45  41  87 CALM      30.21S
THE DALLES     CLEAR     55  45  68 SW5       30.19R
6HR MIN TEMP:  55; 6HR MAX TEMP:  70;

$$

ORZ029>031-041-044-049-050-061>064-502-503-505>511-221300-
EASTERN OREGON


CITY           SKY/WX    TMP DP  RH WIND       PRES   REMARKS
MADRAS         CLEAR     41  32  70 SE5       30.23S
REDMOND        PTCLDY    37  25  61 S3        30.22R
6HR MIN TEMP:  36; 6HR MAX TEMP:  59;

BEND           PTCLDY    45  28  53 CALM      30.19R
PRINEVILLE     PTCLDY    39  30  70 SE3       30.23S
KLAMATH FALLS  CLEAR     56  41  57 N9        30.16R
6HR MIN TEMP:  55; 6HR MAX TEMP:  70;

LAKEVIEW       CLEAR     51  30  44 N15       30.19F
HERMISTON      CLEAR     46  38  73 S3        30.19R
6HR MIN TEMP:  44; 6HR MAX TEMP:  63;

PENDLETON      CLEAR     45  37  73 SE6       30.19R
6HR MIN TEMP:  44; 6HR MAX TEMP:  61;

JOHN DAY       CLEAR     51  35  54 CALM      30.21S
MEACHAM        CLEAR     34  30  85 CALM      30.23R
6HR MIN TEMP:  34; 6HR MAX TEMP:  47;

LA GRANDE      CLEAR     54  30  40 W16       30.18R
6HR MIN TEMP:  50; 6HR MAX TEMP:  57;

BAKER CITY     CLEAR     47  33  58 NW10      30.19R
6HR MIN TEMP:  47; 6HR MAX TEMP:  53;

BURNS          CLEAR     43  28  55 W8        30.20R
6HR MIN TEMP:  38; 6HR MAX TEMP:  51;

ROME             N/A     53  28  38 NE6       30.16R
6HR MIN TEMP:  50; 6HR MAX TEMP:  69;

ONTARIO        CLEAR     60  33  36 NW15      30.11R
6HR MIN TEMP:  60; 6HR MAX TEMP:  72;

$$




USA.gov is the U.S. government's official web portal to all federal, state and local government web resources and services.